This demonstration page uses our WeatherBlox Daily Observations layout. Learn more.

Left ArrowRight Arrow

Hourly Observations for May 18, 2018

Temp ( °F °C ) Dew Point ( °F °C ) Humidity (%) Winds ( mph kmh ) Pressure ( in mb ) Visibility ( mi km ) Precip ( " mm )
12:51 am 00:51 Clear 73 22.8 26 -3.3 17 17 NW 12 19 29.65 1004 10 16 0.00 0.00
1:51 am 01:51 Clear 70 21.1 25 -3.9 18 18 NNW 8 13 29.65 1004 10 16 0.00 0.00
2:51 am 02:51 Clear 70 21.1 26 -3.3 19 19 NW 10 17 29.65 1004 10 16 0.00 0.00
3:51 am 03:51 Clear 67 19.4 21 -6.1 17 17 NW 10 17 29.65 1004 10 16 0.00 0.00
4:51 am 04:51 Clear 62 16.7 19 -7.2 19 19 NNW 7 11 29.67 1005 10 16 0.00 0.00
5:51 am 05:51 Sunny 63 17.2 13 -10.6 14 14 NNW 7 11 29.70 1006 10 16 0.00 0.00
6:51 am 06:51 Sunny 72 22.2 13 -10.6 10 10 WNW 7 11 29.71 1006 10 16 0.00 0.00
7:51 am 07:51 Sunny 75 23.9 17 -8.3 11 11 NW 9 15 29.72 1006 10 16 0.00 0.00
8:51 am 08:51 Sunny 77 25 18 -7.8 11 11 W 8 13 29.72 1007 10 16 0.00 0.00
9:51 am 09:51 Sunny 79 26.1 14 -10 8 8 WNW 6 9 29.72 1006 10 16 0.00 0.00
10:51 am 10:51 Sunny 81 27.2 15 -9.4 8 8 VRB 5 7 29.71 1006 10 16 0.00 0.00
11:51 am 11:51 Sunny 85 29.4 14 -10 7 7 WNW 9 15 29.69 1005 10 16 0.00 0.00
12:51 pm 12:51 Sunny 85 29.4 14 -10 7 7 VRB 7 11 29.67 1005 10 16 0.00 0.00
1:51 pm 13:51 Sunny 89 31.7 12 -11.1 5 5 WNW 9 15 29.65 1004 10 16 0.00 0.00
2:51 pm 14:51 Sunny 89 31.7 8 -13.3 5 5 W 9 15 29.62 1003 10 16 0.00 0.00
3:51 pm 15:51 Sunny 90 32.2 2 -16.7 3 3 WNW 10 17 29.61 1003 10 16 0.00 0.00
4:51 pm 16:51 Sunny 89 31.7 3 -16.1 4 4 WNW 22 35 29.61 1003 10 16 0.00 0.00
5:51 pm 17:51 Sunny 87 30.6 2 -16.7 4 4 WNW 23 37 29.62 1003 10 16 0.00 0.00
6:51 pm 18:51 Sunny 84 28.9 3 -16.1 4 4 NW 18 30 29.62 1003 10 16 0.00 0.00
7:51 pm 19:51 Clear 79 26.1 7 -13.9 6 6 NW 15 24 29.65 1004 10 16 0.00 0.00
8:51 pm 20:51 Clear 77 25 8 -13.3 7 7 NW 13 20 29.67 1005 10 16 0.00 0.00
9:51 pm 21:51 Clear 74 23.3 9 -12.8 8 8 NW 9 15 29.69 1005 10 16 0.00 0.00
10:51 pm 22:51 Clear 69 20.6 10 -12.2 10 10 WNW 10 17 29.70 1006 10 16 0.00 0.00
11:51 pm 23:51 Clear 68 20 10 -12.2 10 10 WNW 10 17 29.70 1006 10 16 0.00 0.00

Powered by AerisWeather